Time,TemperatureF,DewpointF,PressureIn,WindDirection,WindDirectionDegrees,WindSpeedMPH,WindSpeedGustMPH,Humidity,HourlyPrecipIn,Conditions,Clouds,dailyrainin,SoftwareType,DateUTC
2013-07-06 00:00:00,70.0,41.1,30.24,NW,312,0.0,0.0,35,0.00,,BKN250,0.00,VWS V14.01,2013-07-06 04:00:00,
2013-07-06 00:01:00,70.0,41.1,30.24,NW,312,0.0,0.0,35,0.00,,BKN250,0.00,VWS V14.01,2013-07-06 04:01:00,
2013-07-06 00:02:00,70.0,41.1,30.24,NW,313,0.0,0.0,35,0.00,,SCT250,0.00,VWS V14.01,2013-07-06 04:02:00,
2013-07-06 00:07:00,70.0,41.1,30.24,NW,313,0.0,0.0,35,0.00,,SCT250,0.00,VWS V14.01,2013-07-06 04:07:00,
2013-07-06 00:12:00,70.0,41.1,30.24,NW,315,0.0,0.0,35,0.00,,SCT250,0.00,VWS V14.01,2013-07-06 04:12:00,
2013-07-06 00:17:00,70.0,41.1,30.24,NW,313,0.0,0.0,35,0.00,,SCT250,0.00,VWS V14.01,2013-07-06 04:17:00,
2013-07-06 00:22:00,70.0,41.1,30.21,NW,311,0.0,0.0,35,0.00,,SCT250,0.00,VWS V14.01,2013-07-06 04:22:00,
2013-07-06 00:27:00,70.0,41.1,30.21,NW,318,0.0,0.0,35,0.00,,SCT250,0.00,VWS V14.01,2013-07-06 04:27:00,
2013-07-06 00:33:00,70.0,41.1,30.21,NW,318,0.0,0.0,35,0.00,,SCT250,0.04,VWS V14.01,2013-07-06 04:33:00,
2013-07-06 00:38:00,70.0,41.1,30.21,NW,318,0.0,0.0,35,0.00,,SCT250,0.00,VWS V14.01,2013-07-06 04:38:00,
2013-07-06 00:43:00,70.0,41.1,30.21,NW,318,0.0,0.0,35,0.00,,SCT250,0.00,VWS V14.01,2013-07-06 04:43:00,
2013-07-06 00:48:00,70.0,41.1,30.21,NW,318,0.0,0.0,35,0.00,,SCT250,0.00,VWS V14.01,2013-07-06 04:48:00,
2013-07-06 00:53:00,70.0,41.1,30.21,NW,318,0.0,0.0,35,0.00,,SCT250,0.00,VWS V14.01,2013-07-06 04:53:00,
2013-07-06 00:58:00,70.0,41.1,30.21,NW,318,0.0,0.0,35,0.00,,SCT250,0.00,VWS V14.01,2013-07-06 04:58:00,
2013-07-06 01:03:00,70.0,41.1,30.21,NW,318,0.0,0.0,35,0.00,,FEW035,0.00,VWS V14.01,2013-07-06 05:03:00,
2013-07-06 01:08:00,70.0,41.1,30.21,NW,318,0.0,0.0,35,0.00,,FEW035,0.00,VWS V14.01,2013-07-06 05:08:00,
2013-07-06 01:14:00,70.0,41.1,30.21,NW,318,0.0,0.0,35,0.00,,FEW035,0.00,VWS V14.01,2013-07-06 05:14:00,
2013-07-06 01:19:00,70.0,41.1,30.21,NW,318,0.0,0.0,35,0.00,,FEW035,0.00,VWS V14.01,2013-07-06 05:19:00,
2013-07-06 01:24:00,70.0,41.1,30.21,NW,318,0.0,0.0,35,0.00,,FEW035,0.00,VWS V14.01,2013-07-06 05:24:00,
2013-07-06 01:29:00,70.0,41.1,30.21,NW,318,0.0,0.0,35,0.00,,FEW035,0.00,VWS V14.01,2013-07-06 05:29:00,
2013-07-06 01:34:00,70.0,41.1,30.21,NW,318,0.0,0.0,35,0.00,,FEW035,0.00,VWS V14.01,2013-07-06 05:34:00,
2013-07-06 01:39:00,70.0,41.1,30.21,NW,318,0.0,0.0,35,0.00,,FEW035,0.00,VWS V14.01,2013-07-06 05:39:00,
2013-07-06 01:44:00,70.0,41.1,30.21,NW,318,0.0,0.0,35,0.00,,FEW035,0.00,VWS V14.01,2013-07-06 05:44:00,
2013-07-06 01:49:00,70.0,41.1,30.21,NW,318,0.0,0.0,35,0.00,,FEW035,0.00,VWS V14.01,2013-07-06 05:49:00,
2013-07-06 01:54:00,70.0,41.1,30.21,NW,318,0.0,0.0,35,0.00,,FEW035,0.00,VWS V14.01,2013-07-06 05:54:00,
2013-07-06 02:00:00,70.0,41.1,30.21,NW,318,0.0,0.0,35,0.00,,FEW035,0.00,VWS V14.01,2013-07-06 06:00:00,
2013-07-06 02:05:00,70.0,41.1,30.21,NW,318,0.0,0.0,35,0.00,,FEW025,0.04,VWS V14.01,2013-07-06 06:05:00,
2013-07-06 02:10:00,70.0,41.1,30.21,NW,318,0.0,0.0,35,0.00,,FEW025,0.00,VWS V14.01,2013-07-06 06:10:00,
2013-07-06 02:15:00,70.0,41.1,30.21,NW,318,0.0,0.0,35,0.00,,FEW025,0.00,VWS V14.01,2013-07-06 06:15:00,
2013-07-06 02:20:00,70.0,41.1,30.21,NW,318,0.0,0.0,35,0.00,,FEW025,0.00,VWS V14.01,2013-07-06 06:20:00,
2013-07-06 02:25:00,70.0,41.1,30.21,NW,318,0.0,0.0,35,0.00,,FEW025,0.00,VWS V14.01,2013-07-06 06:25:00,
2013-07-06 02:30:00,70.0,41.1,30.21,NW,318,0.0,0.0,35,0.00,,FEW025,0.00,VWS V14.01,2013-07-06 06:30:00,
2013-07-06 02:35:00,70.0,41.1,30.21,NW,318,0.0,0.0,35,0.00,,FEW025,0.00,VWS V14.01,2013-07-06 06:35:00,
2013-07-06 02:40:00,70.0,41.1,30.21,NW,318,0.0,0.0,35,0.00,,FEW025,0.00,VWS V14.01,2013-07-06 06:40:00,
2013-07-06 02:46:00,70.0,41.1,30.21,NW,318,0.0,0.0,35,0.00,,FEW025,0.00,VWS V14.01,2013-07-06 06:46:00,
2013-07-06 02:51:00,70.0,41.1,30.21,NW,318,0.0,0.0,35,0.00,,FEW025,0.00,VWS V14.01,2013-07-06 06:51:00,
2013-07-06 02:56:00,70.0,41.1,30.21,NW,318,0.0,0.0,35,0.00,,FEW025,0.00,VWS V14.01,2013-07-06 06:56:00,
2013-07-06 03:01:00,70.0,41.1,30.21,NW,318,0.0,0.0,35,0.00,,FEW025,0.00,VWS V14.01,2013-07-06 07:01:00,
2013-07-06 03:06:00,70.0,41.1,30.21,NW,318,0.0,0.0,35,0.00,,FEW012,0.00,VWS V14.01,2013-07-06 07:06:00,
2013-07-06 03:11:00,70.0,41.1,30.21,NW,318,0.0,0.0,35,0.00,,FEW012,0.00,VWS V14.01,2013-07-06 07:11:00,
2013-07-06 03:16:00,70.0,41.1,30.21,NW,318,0.0,0.0,35,0.00,,FEW012,0.00,VWS V14.01,2013-07-06 07:16:00,
2013-07-06 03:21:00,70.0,41.1,30.21,NW,318,0.0,0.0,35,0.00,,FEW012,0.00,VWS V14.01,2013-07-06 07:21:00,
2013-07-06 03:27:00,70.0,41.1,30.21,NW,318,0.0,0.0,35,0.00,,FEW012,0.00,VWS V14.01,2013-07-06 07:27:00,
2013-07-06 03:32:00,70.0,41.1,30.21,NW,318,0.0,0.0,35,0.00,,FEW012,0.00,VWS V14.01,2013-07-06 07:32:00,
2013-07-06 03:37:00,70.0,41.1,30.21,NW,318,0.0,0.0,35,0.00,,FEW012,0.00,VWS V14.01,2013-07-06 07:37:00,
2013-07-06 03:42:00,70.0,41.1,30.21,NW,318,0.0,0.0,35,0.00,,FEW012,0.00,VWS V14.01,2013-07-06 07:42:00,
2013-07-06 03:47:00,70.0,41.1,30.21,NW,318,0.0,0.0,35,0.00,,FEW012,0.00,VWS V14.01,2013-07-06 07:47:00,
2013-07-06 03:52:00,70.0,41.1,30.21,NW,318,0.0,0.0,35,0.00,,FEW012,0.00,VWS V14.01,2013-07-06 07:52:00,
2013-07-06 03:57:00,70.0,41.1,30.21,NW,318,0.0,0.0,35,0.00,,FEW012,0.00,VWS V14.01,2013-07-06 07:57:00,
2013-07-06 04:02:00,70.0,41.1,30.21,NW,318,0.0,0.0,35,0.00,,OVC008,0.00,VWS V14.01,2013-07-06 08:02:00,
2013-07-06 04:08:00,70.0,41.1,30.21,NW,318,0.0,0.0,35,0.00,,OVC008,0.00,VWS V14.01,2013-07-06 08:08:00,
2013-07-06 04:13:00,70.0,41.1,30.21,NW,318,0.0,0.0,35,0.00,,OVC008,0.00,VWS V14.01,2013-07-06 08:13:00,
2013-07-06 04:18:00,70.0,41.1,30.21,NW,318,0.0,0.0,35,0.00,,OVC008,0.00,VWS V14.01,2013-07-06 08:18:00,
2013-07-06 04:23:00,70.0,41.1,30.21,NW,318,0.0,0.0,35,0.00,,OVC008,0.00,VWS V14.01,2013-07-06 08:23:00,
2013-07-06 04:28:00,70.0,41.1,30.21,NW,318,0.0,0.0,35,0.00,,OVC008,0.00,VWS V14.01,2013-07-06 08:28:00,
2013-07-06 04:33:00,70.0,41.1,30.21,NW,318,0.0,0.0,35,0.00,,OVC008,0.00,VWS V14.01,2013-07-06 08:33:00,
2013-07-06 04:38:00,70.0,41.1,30.21,NW,314,0.0,0.0,35,0.00,,OVC008,0.00,VWS V14.01,2013-07-06 08:38:00,
2013-07-06 04:43:00,70.0,41.1,30.21,NW,314,0.0,0.0,35,0.00,,OVC008,0.00,VWS V14.01,2013-07-06 08:43:00,
2013-07-06 04:48:00,70.0,41.1,30.21,NW,314,0.0,0.0,35,0.00,,OVC008,0.00,VWS V14.01,2013-07-06 08:48:00,
2013-07-06 04:54:00,70.0,41.1,30.21,NW,314,0.0,0.0,35,0.00,,OVC008,0.00,VWS V14.01,2013-07-06 08:54:00,
2013-07-06 04:59:00,70.0,41.1,30.21,NW,314,0.0,0.0,35,0.00,,OVC008,0.00,VWS V14.01,2013-07-06 08:59:00,
2013-07-06 05:04:00,70.0,41.1,30.21,NW,314,0.0,0.0,35,0.00,,OVC007,0.00,VWS V14.01,2013-07-06 09:04:00,
2013-07-06 05:09:00,70.0,41.1,30.21,NW,314,0.0,0.0,35,0.00,,OVC007,0.04,VWS V14.01,2013-07-06 09:09:00,
2013-07-06 05:14:00,70.0,41.1,30.21,NW,314,0.0,0.0,35,0.00,,OVC007,0.00,VWS V14.01,2013-07-06 09:14:00,
2013-07-06 05:19:00,70.0,41.1,30.21,NW,314,0.0,0.0,35,0.00,,OVC007,0.00,VWS V14.01,2013-07-06 09:19:00,
2013-07-06 05:24:00,70.0,41.1,30.21,NW,314,0.0,0.0,35,0.00,,OVC007,0.00,VWS V14.01,2013-07-06 09:24:00,
2013-07-06 05:29:00,70.0,41.1,30.21,NW,314,0.0,0.0,35,0.00,,OVC007,0.00,VWS V14.01,2013-07-06 09:29:00,
2013-07-06 05:34:00,70.0,41.1,30.21,NW,314,0.0,0.0,35,0.00,,OVC007,0.00,VWS V14.01,2013-07-06 09:34:00,
2013-07-06 05:40:00,70.0,41.1,30.21,NW,314,0.0,0.0,35,0.00,,OVC007,0.00,VWS V14.01,2013-07-06 09:40:00,
2013-07-06 05:45:00,70.0,41.1,30.21,NW,314,0.0,0.0,35,0.00,,OVC007,0.00,VWS V14.01,2013-07-06 09:45:00,
2013-07-06 05:50:00,70.0,41.1,30.21,NW,314,0.0,0.0,35,0.00,,OVC007,0.00,VWS V14.01,2013-07-06 09:50:00,
2013-07-06 05:55:00,70.0,41.1,30.21,NW,314,0.0,0.0,35,0.00,,OVC007,0.00,VWS V14.01,2013-07-06 09:55:00,
2013-07-06 06:00:00,70.0,41.1,30.21,NW,314,0.0,0.0,35,0.00,,OVC007,0.00,VWS V14.01,2013-07-06 10:00:00,
2013-07-06 06:05:00,70.0,41.1,30.21,NW,314,0.0,0.0,35,0.00,,BKN019,0.00,VWS V14.01,2013-07-06 10:05:00,
2013-07-06 06:10:00,70.0,41.1,30.21,NW,314,0.0,0.0,35,0.00,,BKN019,0.00,VWS V14.01,2013-07-06 10:10:00,
2013-07-06 06:15:00,70.0,41.1,30.21,NW,314,0.0,0.0,35,0.00,,BKN019,0.00,VWS V14.01,2013-07-06 10:15:00,
2013-07-06 06:20:00,70.0,41.1,30.21,NW,314,0.0,0.0,35,0.00,,BKN019,0.00,VWS V14.01,2013-07-06 10:20:00,
2013-07-06 06:25:00,70.0,41.1,30.24,NW,314,0.0,0.0,35,0.00,,BKN019,0.00,VWS V14.01,2013-07-06 10:25:00,
2013-07-06 06:31:00,70.0,41.1,30.24,NW,314,0.0,0.0,35,0.00,,BKN019,0.00,VWS V14.01,2013-07-06 10:31:00,
2013-07-06 06:36:00,70.0,41.1,30.24,NW,314,0.0,0.0,35,0.00,,BKN019,0.00,VWS V14.01,2013-07-06 10:36:00,
2013-07-06 06:41:00,70.0,41.1,30.24,NW,314,0.0,0.0,35,0.00,,BKN019,0.00,VWS V14.01,2013-07-06 10:41:00,
2013-07-06 06:46:00,70.0,41.1,30.24,NW,314,0.0,0.0,35,0.00,,BKN019,0.00,VWS V14.01,2013-07-06 10:46:00,
2013-07-06 06:51:00,70.0,41.1,30.24,NW,314,0.0,0.0,35,0.00,,BKN019,0.00,VWS V14.01,2013-07-06 10:51:00,
2013-07-06 06:56:00,70.0,41.1,30.24,NW,314,0.0,0.0,35,0.00,,BKN019,0.00,VWS V14.01,2013-07-06 10:56:00,
2013-07-06 07:01:00,70.0,41.1,30.24,NW,314,0.0,0.0,35,0.00,,BKN019,0.00,VWS V14.01,2013-07-06 11:01:00,
2013-07-06 07:06:00,70.0,41.1,30.24,NW,314,0.0,0.0,35,0.00,,BKN019,0.00,VWS V14.01,2013-07-06 11:06:00,
2013-07-06 07:12:00,70.0,41.1,30.24,NW,314,0.0,0.0,35,0.00,,BKN019,0.00,VWS V14.01,2013-07-06 11:12:00,
2013-07-06 07:17:00,70.0,41.1,30.24,NW,314,0.0,0.0,35,0.00,,BKN019,0.00,VWS V14.01,2013-07-06 11:17:00,
2013-07-06 07:22:00,70.0,41.1,30.24,NW,314,0.0,0.0,35,0.00,,BKN019,0.00,VWS V14.01,2013-07-06 11:22:00,
2013-07-06 07:27:00,70.0,41.1,30.24,NW,314,0.0,0.0,35,0.00,,BKN019,0.00,VWS V14.01,2013-07-06 11:27:00,
2013-07-06 07:32:00,70.0,41.1,30.24,NW,314,0.0,0.0,35,0.00,,BKN019,0.00,VWS V14.01,2013-07-06 11:32:00,
2013-07-06 07:37:00,70.0,41.1,30.24,NW,314,0.0,0.0,35,0.00,,BKN019,0.00,VWS V14.01,2013-07-06 11:37:00,
2013-07-06 07:42:00,70.0,41.1,30.24,NW,314,0.0,0.0,35,0.00,,BKN019,0.00,VWS V14.01,2013-07-06 11:42:00,
2013-07-06 07:47:00,70.0,41.1,30.24,NW,314,0.0,0.0,35,0.00,,BKN019,0.00,VWS V14.01,2013-07-06 11:47:00,
2013-07-06 07:52:00,70.0,41.1,30.24,NW,314,0.0,0.0,35,0.00,,BKN019,0.00,VWS V14.01,2013-07-06 11:52:00,
2013-07-06 07:58:00,70.0,41.1,30.24,NW,314,0.0,0.0,35,0.00,,BKN019,0.00,VWS V14.01,2013-07-06 11:58:00,
2013-07-06 08:03:00,70.0,41.1,30.24,NW,314,0.0,0.0,35,0.00,,BKN013,0.00,VWS V14.01,2013-07-06 12:03:00,
2013-07-06 08:08:00,70.0,41.1,30.24,NW,314,0.0,0.0,35,0.00,,BKN013,0.00,VWS V14.01,2013-07-06 12:08:00,
2013-07-06 08:13:00,70.0,41.1,30.24,NW,314,0.0,0.0,35,0.00,,BKN013,0.00,VWS V14.01,2013-07-06 12:13:00,
2013-07-06 08:18:00,70.0,41.1,30.24,NW,314,0.0,0.0,35,0.00,,BKN013,0.00,VWS V14.01,2013-07-06 12:18:00,
2013-07-06 08:23:00,70.0,41.1,30.24,NW,314,0.0,0.0,35,0.00,,BKN013,0.00,VWS V14.01,2013-07-06 12:23:00,
2013-07-06 08:28:00,70.0,41.1,30.24,NW,314,0.0,0.0,35,0.00,,BKN013,0.00,VWS V14.01,2013-07-06 12:28:00,
2013-07-06 08:33:00,70.0,41.1,30.24,NW,314,0.0,0.0,35,0.00,,BKN016,0.00,VWS V14.01,2013-07-06 12:33:00,
2013-07-06 08:38:00,70.0,41.1,30.24,NW,314,0.0,0.0,35,0.00,,BKN016,0.00,VWS V14.01,2013-07-06 12:38:00,
2013-07-06 08:43:00,70.0,41.1,30.24,NW,314,0.0,0.0,35,0.00,,BKN016,0.00,VWS V14.01,2013-07-06 12:43:00,
2013-07-06 08:49:00,70.0,41.1,30.24,NW,314,0.0,0.0,35,0.00,,BKN016,0.00,VWS V14.01,2013-07-06 12:49:00,
2013-07-06 08:54:00,70.0,41.1,30.24,NW,314,0.0,0.0,35,0.00,,BKN016,0.00,VWS V14.01,2013-07-06 12:54:00,
2013-07-06 08:59:00,70.0,41.1,30.24,NW,314,0.0,0.0,35,0.00,,BKN016,0.00,VWS V14.01,2013-07-06 12:59:00,
2013-07-06 09:04:00,70.0,41.1,30.24,NW,314,0.0,0.0,35,0.00,,BKN031,0.00,VWS V14.01,2013-07-06 13:04:00,
2013-07-06 09:09:00,70.0,41.1,30.24,NW,314,0.0,0.0,35,0.00,,BKN031,0.00,VWS V14.01,2013-07-06 13:09:00,
2013-07-06 09:14:00,70.0,41.1,30.24,NW,314,0.0,0.0,35,0.00,,BKN031,0.00,VWS V14.01,2013-07-06 13:14:00,
2013-07-06 09:19:00,70.0,41.1,30.24,NW,312,0.0,0.0,35,0.00,,BKN031,0.00,VWS V14.01,2013-07-06 13:19:00,
2013-07-06 09:24:00,70.0,41.1,30.24,NW,312,0.0,0.0,35,0.00,,BKN031,0.00,VWS V14.01,2013-07-06 13:24:00,
2013-07-06 09:29:00,70.0,41.1,30.24,NW,312,0.0,0.0,35,0.00,,BKN031,0.00,VWS V14.01,2013-07-06 13:29:00,
2013-07-06 09:34:00,70.0,41.1,30.24,NW,317,0.0,0.0,35,0.00,,BKN031,0.00,VWS V14.01,2013-07-06 13:34:00,
2013-07-06 09:40:00,70.0,41.1,30.24,NW,317,0.0,0.0,35,0.00,,BKN031,0.00,VWS V14.01,2013-07-06 13:40:00,
2013-07-06 09:45:00,70.0,41.1,30.24,NW,317,0.0,0.0,35,0.00,,BKN031,0.00,VWS V14.01,2013-07-06 13:45:00,
2013-07-06 09:50:00,70.0,41.1,30.24,NW,317,0.0,0.0,35,0.00,,BKN031,0.00,VWS V14.01,2013-07-06 13:50:00,
2013-07-06 09:55:00,70.0,41.1,30.24,NW,313,0.0,0.0,35,0.00,,BKN031,0.00,VWS V14.01,2013-07-06 13:55:00,
2013-07-06 10:00:00,70.0,41.1,30.24,NW,317,0.0,0.0,35,0.00,,BKN031,0.00,VWS V14.01,2013-07-06 14:00:00,
2013-07-06 10:05:00,70.0,41.1,30.24,NW,312,0.0,0.0,35,0.00,,BKN027,0.00,VWS V14.01,2013-07-06 14:05:00,
2013-07-06 10:10:00,70.0,41.1,30.24,NW,312,0.0,0.0,35,0.00,,BKN027,0.00,VWS V14.01,2013-07-06 14:10:00,
2013-07-06 10:15:00,70.0,41.1,30.24,NW,313,0.0,0.0,35,0.00,,BKN027,0.00,VWS V14.01,2013-07-06 14:15:00,
2013-07-06 10:20:00,70.0,41.1,30.24,NW,313,0.0,0.0,35,0.00,,BKN027,0.00,VWS V14.01,2013-07-06 14:20:00,
2013-07-06 10:25:00,70.0,41.1,30.24,NW,313,0.0,0.0,35,0.00,,BKN027,0.00,VWS V14.01,2013-07-06 14:25:00,
2013-07-06 10:31:00,70.0,41.1,30.24,NW,315,0.0,0.0,35,0.00,,BKN027,0.00,VWS V14.01,2013-07-06 14:31:00,
2013-07-06 10:36:00,70.0,41.1,30.24,NW,315,0.0,0.0,35,0.00,,BKN027,0.00,VWS V14.01,2013-07-06 14:36:00,
2013-07-06 10:41:00,70.0,41.1,30.24,NW,317,0.0,0.0,35,0.00,,BKN027,0.00,VWS V14.01,2013-07-06 14:41:00,
2013-07-06 10:46:00,70.0,41.1,30.24,NW,317,0.0,0.0,35,0.00,,BKN027,0.00,VWS V14.01,2013-07-06 14:46:00,
2013-07-06 10:51:00,70.0,41.1,30.24,NW,317,0.0,0.0,35,0.00,,BKN027,0.00,VWS V14.01,2013-07-06 14:51:00,
2013-07-06 10:56:00,70.0,41.1,30.24,NW,317,0.0,0.0,35,0.00,,BKN027,0.00,VWS V14.01,2013-07-06 14:56:00,
2013-07-06 11:01:00,70.0,41.1,30.24,NW,318,0.0,0.0,35,0.00,,BKN027,0.00,VWS V14.01,2013-07-06 15:01:00,
2013-07-06 11:06:00,70.0,41.1,30.24,NW,315,0.0,0.0,35,0.00,,BKN024,0.00,VWS V14.01,2013-07-06 15:06:00,
2013-07-06 11:11:00,70.0,41.1,30.24,NW,315,0.0,0.0,35,0.00,,BKN024,0.00,VWS V14.01,2013-07-06 15:11:00,
2013-07-06 11:17:00,70.0,41.1,30.24,NW,315,0.0,0.0,35,0.00,,BKN024,0.00,VWS V14.01,2013-07-06 15:17:00,
2013-07-06 11:22:00,70.0,41.1,30.24,NW,313,0.0,0.0,35,0.00,,BKN024,0.00,VWS V14.01,2013-07-06 15:22:00,
2013-07-06 11:27:00,70.0,41.1,30.24,NW,313,0.0,0.0,35,0.00,,BKN024,0.00,VWS V14.01,2013-07-06 15:27:00,
2013-07-06 11:32:00,70.0,41.1,30.24,NW,313,0.0,0.0,35,0.00,,BKN024,0.00,VWS V14.01,2013-07-06 15:32:00,
2013-07-06 11:37:00,70.0,41.1,30.24,NW,313,0.0,0.0,35,0.00,,BKN024,0.00,VWS V14.01,2013-07-06 15:37:00,
2013-07-06 11:42:00,70.0,41.1,30.24,NW,313,0.0,0.0,35,0.00,,BKN024,0.00,VWS V14.01,2013-07-06 15:42:00,
2013-07-06 11:47:00,70.0,41.1,30.24,NW,313,0.0,0.0,35,0.00,,BKN024,0.00,VWS V14.01,2013-07-06 15:47:00,
2013-07-06 11:52:00,70.0,41.1,30.24,NW,313,0.0,0.0,35,0.00,,BKN024,0.00,VWS V14.01,2013-07-06 15:52:00,
2013-07-06 11:57:00,70.0,41.1,30.24,NW,314,0.0,0.0,35,0.00,,BKN024,0.00,VWS V14.01,2013-07-06 15:57:00,
2013-07-06 12:03:00,70.0,41.1,30.24,SW,234,0.0,0.0,35,0.00,,BKN029,0.00,VWS V14.01,2013-07-06 16:03:00,
2013-07-06 12:08:00,70.0,41.1,30.24,West,263,0.0,9.9,35,0.04,,BKN029,0.04,VWS V14.01,2013-07-06 16:08:00,
2013-07-06 12:13:00,70.0,41.1,30.24,West,263,0.0,0.0,35,0.16,,BKN029,0.16,VWS V14.01,2013-07-06 16:13:00,
2013-07-06 12:18:00,70.0,41.1,30.24,WSW,257,0.0,0.0,35,0.16,,BKN029,0.16,VWS V14.01,2013-07-06 16:18:00,
2013-07-06 12:24:00,70.0,41.1,30.24,WSW,257,0.0,0.0,35,0.16,,BKN029,0.16,VWS V14.01,2013-07-06 16:24:00,
2013-07-06 12:29:00,70.0,41.1,30.24,WSW,257,0.0,0.0,35,0.16,,BKN029,0.16,VWS V14.01,2013-07-06 16:29:00,
2013-07-06 12:35:00,70.0,41.1,30.24,WSW,257,0.0,0.0,35,0.16,,BKN029,0.16,VWS V14.01,2013-07-06 16:35:00,
2013-07-06 12:40:00,70.0,41.1,30.24,WSW,257,0.0,0.0,35,0.16,,BKN029,0.16,VWS V14.01,2013-07-06 16:40:00,
2013-07-06 12:45:00,70.0,41.1,30.24,WSW,257,0.0,0.0,35,0.16,,BKN029,0.16,VWS V14.01,2013-07-06 16:45:00,
2013-07-06 12:50:00,70.0,41.1,30.24,WSW,256,0.0,0.0,35,0.16,,BKN029,0.16,VWS V14.01,2013-07-06 16:50:00,
2013-07-06 12:55:00,70.0,41.1,30.24,WSW,257,0.0,0.0,35,0.16,,BKN029,0.16,VWS V14.01,2013-07-06 16:55:00,
2013-07-06 13:01:00,70.0,41.1,30.24,WSW,257,0.0,0.0,35,0.16,,BKN029,0.16,VWS V14.01,2013-07-06 17:01:00,
2013-07-06 13:07:00,70.0,41.1,30.24,WSW,257,0.0,0.0,35,0.16,,BKN150,0.16,VWS V14.01,2013-07-06 17:07:00,
2013-07-06 13:12:00,70.0,41.1,30.24,WSW,257,0.0,0.0,35,0.04,,BKN150,0.16,VWS V14.01,2013-07-06 17:12:00,
2013-07-06 13:18:00,70.0,41.1,30.24,WSW,257,0.0,0.0,35,0.00,,BKN150,0.16,VWS V14.01,2013-07-06 17:18:00,
2013-07-06 13:23:00,70.0,41.1,30.21,WSW,257,0.0,0.0,35,0.00,,BKN150,0.16,VWS V14.01,2013-07-06 17:23:00,
2013-07-06 13:28:00,70.0,41.1,30.21,West,268,0.0,0.0,35,0.00,,BKN150,0.16,VWS V14.01,2013-07-06 17:28:00,
2013-07-06 13:33:00,70.0,41.1,30.21,West,266,0.0,0.0,35,0.00,,BKN150,0.16,VWS V14.01,2013-07-06 17:33:00,
2013-07-06 13:38:00,70.0,41.1,30.21,West,267,0.0,0.0,35,0.00,,BKN150,0.04,VWS V14.01,2013-07-06 17:38:00,
2013-07-06 13:45:00,70.0,41.1,30.21,West,267,0.0,0.0,35,0.00,,BKN150,0.16,VWS V14.01,2013-07-06 17:45:00,
2013-07-06 13:50:00,70.0,41.1,30.21,West,267,0.0,0.0,35,0.00,,BKN150,0.16,VWS V14.01,2013-07-06 17:50:00,
2013-07-06 13:55:00,70.0,41.1,30.21,West,267,0.0,0.0,35,0.00,,BKN150,0.16,VWS V14.01,2013-07-06 17:55:00,
2013-07-06 14:02:00,70.0,41.1,30.21,West,275,0.0,0.0,35,0.00,,BKN150,0.16,VWS V14.01,2013-07-06 18:02:00,
2013-07-06 14:08:00,70.0,41.1,30.21,West,275,0.0,0.0,35,0.00,,BKN150,0.16,VWS V14.01,2013-07-06 18:08:00,
2013-07-06 14:13:00,70.0,41.1,30.21,West,275,0.0,0.0,35,0.00,,BKN150,0.16,VWS V14.01,2013-07-06 18:13:00,
2013-07-06 14:18:00,70.0,41.1,30.21,WNW,289,0.0,0.0,35,0.00,,BKN150,0.16,VWS V14.01,2013-07-06 18:18:00,
2013-07-06 14:24:00,70.0,41.1,30.18,WNW,287,0.0,0.0,35,0.00,,BKN150,0.16,VWS V14.01,2013-07-06 18:24:00,
2013-07-06 14:29:00,70.0,41.1,30.18,WNW,287,0.0,0.0,35,0.00,,BKN150,0.16,VWS V14.01,2013-07-06 18:29:00,
2013-07-06 14:35:00,70.0,41.1,30.18,WNW,287,0.0,0.0,35,0.00,,BKN150,0.16,VWS V14.01,2013-07-06 18:35:00,
2013-07-06 14:40:00,70.0,41.1,30.18,WNW,284,0.0,0.0,35,0.00,,BKN150,0.16,VWS V14.01,2013-07-06 18:40:00,
2013-07-06 14:45:00,70.0,41.1,30.18,WNW,284,0.0,0.0,35,0.00,,BKN150,0.16,VWS V14.01,2013-07-06 18:45:00,
2013-07-06 14:50:00,70.0,41.1,30.18,WNW,286,0.0,0.0,35,0.00,,BKN150,0.16,VWS V14.01,2013-07-06 18:50:00,
2013-07-06 14:55:00,70.0,41.1,30.18,WNW,299,0.0,0.0,35,0.00,,BKN150,0.16,VWS V14.01,2013-07-06 18:55:00,
2013-07-06 15:01:00,70.0,41.1,30.18,WNW,299,0.0,0.0,35,0.00,,BKN150,0.16,VWS V14.01,2013-07-06 19:01:00,
2013-07-06 15:06:00,70.0,41.1,30.18,WNW,299,0.0,0.0,35,0.00,,-RA,0.16,VWS V14.01,2013-07-06 19:06:00,
2013-07-06 15:11:00,70.0,41.1,30.18,WNW,298,0.0,0.0,35,0.00,,-RA,0.16,VWS V14.01,2013-07-06 19:11:00,
2013-07-06 15:17:00,70.0,41.1,30.18,NW,304,0.0,0.0,35,0.00,,-RA,0.16,VWS V14.01,2013-07-06 19:17:00,
2013-07-06 15:22:00,70.0,41.1,30.18,NW,316,0.0,0.0,35,0.00,,-RA,0.16,VWS V14.01,2013-07-06 19:22:00,
2013-07-06 15:27:00,70.0,41.1,30.15,WNW,299,0.0,7.0,35,0.00,,-RA,0.16,VWS V14.01,2013-07-06 19:27:00,
2013-07-06 15:32:00,70.0,41.1,30.15,NW,314,0.0,0.0,35,0.00,,-RA,0.16,VWS V14.01,2013-07-06 19:32:00,
2013-07-06 15:38:00,70.0,41.1,30.15,NW,313,0.0,0.0,35,0.00,,-RA,0.16,VWS V14.01,2013-07-06 19:38:00,
2013-07-06 15:44:00,70.0,41.1,30.15,NW,314,0.0,0.0,35,0.00,,-RA,0.16,VWS V14.01,2013-07-06 19:44:00,
2013-07-06 15:49:00,70.0,41.1,30.15,NW,315,0.0,11.3,35,0.00,,-RA,0.16,VWS V14.01,2013-07-06 19:49:00,
2013-07-06 15:54:00,70.0,41.1,30.15,NW,318,0.0,0.0,35,0.00,,-RA,0.16,VWS V14.01,2013-07-06 19:54:00,
2013-07-06 15:59:00,70.0,41.1,30.15,NW,318,0.0,0.0,35,0.00,,-RA,0.16,VWS V14.01,2013-07-06 19:59:00,
2013-07-06 16:05:00,70.0,41.1,30.15,NW,319,6.7,8.5,35,0.00,,SCT150,0.16,VWS V14.01,2013-07-06 20:05:00,
2013-07-06 16:10:00,70.0,41.1,30.15,NW,315,0.0,7.0,35,0.00,,SCT150,0.16,VWS V14.01,2013-07-06 20:10:00,
2013-07-06 16:15:00,70.0,41.1,30.15,NNW,337,0.0,7.0,35,0.00,,SCT150,0.16,VWS V14.01,2013-07-06 20:15:00,
2013-07-06 16:20:00,70.0,41.1,30.15,NNW,337,0.0,0.0,35,0.00,,SCT150,0.16,VWS V14.01,2013-07-06 20:20:00,
2013-07-06 16:26:00,70.0,41.1,30.15,NNW,337,0.0,0.0,35,0.00,,SCT150,0.16,VWS V14.01,2013-07-06 20:26:00,
2013-07-06 16:31:00,70.0,41.1,30.15,NNW,337,0.0,0.0,35,0.00,,SCT150,0.16,VWS V14.01,2013-07-06 20:31:00,
2013-07-06 16:36:00,70.0,41.1,30.15,NNW,333,0.0,0.0,35,0.00,,SCT150,0.16,VWS V14.01,2013-07-06 20:36:00,
2013-07-06 16:41:00,70.0,41.1,30.12,North,357,0.0,0.0,35,0.00,,SCT150,0.16,VWS V14.01,2013-07-06 20:41:00,
2013-07-06 16:46:00,70.0,41.1,30.12,NNW,333,0.0,0.0,35,0.00,,SCT150,0.16,VWS V14.01,2013-07-06 20:46:00,
2013-07-06 16:52:00,70.0,41.1,30.12,NNW,337,0.0,0.0,35,0.00,,SCT150,0.16,VWS V14.01,2013-07-06 20:52:00,
2013-07-06 16:57:00,70.0,41.1,30.12,NNW,339,0.0,0.0,35,0.00,,SCT150,0.16,VWS V14.01,2013-07-06 20:57:00,
2013-07-06 17:02:00,70.0,41.1,30.12,North,353,0.0,0.0,35,0.00,,BKN150,0.16,VWS V14.01,2013-07-06 21:02:00,
2013-07-06 17:08:00,70.0,41.1,30.12,North,353,0.0,0.0,35,0.00,,BKN150,0.16,VWS V14.01,2013-07-06 21:08:00,
2013-07-06 17:14:00,70.0,41.1,30.12,NNE,22,0.0,0.0,35,0.00,,BKN150,0.16,VWS V14.01,2013-07-06 21:14:00,
2013-07-06 17:19:00,70.0,41.1,30.12,NNE,16,0.0,0.0,35,0.00,,BKN150,0.16,VWS V14.01,2013-07-06 21:19:00,
2013-07-06 17:24:00,70.0,41.1,30.12,NNW,339,0.0,0.0,35,0.00,,BKN150,0.16,VWS V14.01,2013-07-06 21:24:00,
2013-07-06 17:30:00,70.0,41.1,30.12,NNE,28,0.0,0.0,35,0.00,,BKN150,0.16,VWS V14.01,2013-07-06 21:30:00,
2013-07-06 17:35:00,70.0,41.1,30.12,NNW,333,0.0,0.0,35,0.00,,BKN150,0.16,VWS V14.01,2013-07-06 21:35:00,
2013-07-06 17:40:00,70.0,41.1,30.12,NNW,335,0.0,0.0,35,0.00,,BKN150,0.16,VWS V14.01,2013-07-06 21:40:00,
2013-07-06 17:45:00,70.0,41.1,30.12,NNW,340,0.0,0.0,35,0.00,,BKN150,0.16,VWS V14.01,2013-07-06 21:45:00,
2013-07-06 17:51:00,70.0,41.1,30.12,WNW,288,0.0,0.0,35,0.00,,BKN150,0.16,VWS V14.01,2013-07-06 21:51:00,
2013-07-06 17:56:00,70.0,41.1,30.12,WNW,295,0.0,0.0,35,0.00,,BKN150,0.16,VWS V14.01,2013-07-06 21:56:00,
2013-07-06 18:04:00,70.0,41.1,30.12,WNW,296,0.0,0.0,35,0.00,,BKN150,0.16,VWS V14.01,2013-07-06 22:04:00,
2013-07-06 18:09:00,70.0,41.1,30.12,NW,313,0.0,0.0,35,0.00,,BKN150,0.16,VWS V14.01,2013-07-06 22:09:00,
2013-07-06 18:14:00,70.0,41.1,30.12,NW,313,0.0,0.0,35,0.00,,BKN150,0.16,VWS V14.01,2013-07-06 22:14:00,
2013-07-06 18:19:00,70.0,41.1,30.12,NW,314,0.0,0.0,35,0.00,,BKN150,0.16,VWS V14.01,2013-07-06 22:19:00,
2013-07-06 18:24:00,70.0,41.1,30.12,NW,314,0.0,0.0,35,0.00,,BKN150,0.16,VWS V14.01,2013-07-06 22:24:00,
2013-07-06 18:29:00,70.0,41.1,30.12,NW,314,0.0,0.0,35,0.00,,BKN150,0.16,VWS V14.01,2013-07-06 22:29:00,
2013-07-06 18:34:00,70.0,41.1,30.12,NW,316,0.0,0.0,35,0.00,,BKN150,0.16,VWS V14.01,2013-07-06 22:34:00,
2013-07-06 18:40:00,70.0,41.1,30.12,NW,316,0.0,0.0,35,0.00,,BKN150,0.16,VWS V14.01,2013-07-06 22:40:00,
2013-07-06 18:45:00,70.0,41.1,30.12,NW,316,0.0,0.0,35,0.00,,BKN150,0.16,VWS V14.01,2013-07-06 22:45:00,
2013-07-06 18:51:00,70.0,41.1,30.12,NW,316,0.0,0.0,35,0.00,,BKN150,0.16,VWS V14.01,2013-07-06 22:51:00,
2013-07-06 18:56:00,70.0,41.1,30.12,NW,316,0.0,0.0,35,0.00,,BKN150,0.16,VWS V14.01,2013-07-06 22:56:00,
2013-07-06 19:02:00,70.0,41.1,30.12,NW,316,0.0,0.0,35,0.00,,SCT150,0.16,VWS V14.01,2013-07-06 23:02:00,
2013-07-06 19:07:00,70.0,41.1,30.12,NW,316,0.0,0.0,35,0.00,,SCT150,0.16,VWS V14.01,2013-07-06 23:07:00,
2013-07-06 19:13:00,70.0,41.1,30.12,NW,316,0.0,0.0,35,0.00,,SCT150,0.16,VWS V14.01,2013-07-06 23:13:00,
2013-07-06 19:18:00,70.0,41.1,30.12,NW,316,0.0,0.0,35,0.00,,SCT150,0.16,VWS V14.01,2013-07-06 23:18:00,
2013-07-06 19:23:00,70.0,41.1,30.12,NE,36,0.0,16.9,35,0.00,,SCT150,0.16,VWS V14.01,2013-07-06 23:23:00,
2013-07-06 19:28:00,70.0,41.1,30.12,North,6,0.0,0.0,35,0.00,,SCT150,0.16,VWS V14.01,2013-07-06 23:28:00,
2013-07-06 19:33:00,70.0,41.1,30.12,North,6,0.0,0.0,35,0.00,,SCT150,0.16,VWS V14.01,2013-07-06 23:33:00,
2013-07-06 19:38:00,70.0,41.1,30.12,North,5,0.0,0.0,35,0.00,,SCT150,0.16,VWS V14.01,2013-07-06 23:38:00,
2013-07-06 19:43:00,70.0,41.1,30.12,North,5,0.0,0.0,35,0.00,,SCT150,0.16,VWS V14.01,2013-07-06 23:43:00,
2013-07-06 19:48:00,70.0,41.1,30.12,North,5,0.0,0.0,35,0.00,,SCT150,0.04,VWS V14.01,2013-07-06 23:48:00,
2013-07-06 19:53:00,70.0,41.1,30.12,North,5,0.0,0.0,35,0.00,,SCT150,0.16,VWS V14.01,2013-07-06 23:53:00,
2013-07-06 19:59:00,70.0,41.1,30.12,NNW,339,0.0,0.0,35,0.00,,SCT150,0.16,VWS V14.01,2013-07-06 23:59:00,
2013-07-06 20:04:00,70.0,41.1,30.12,WNW,287,0.0,8.5,35,0.00,,SCT150,0.16,VWS V14.01,2013-07-07 00:04:00,
2013-07-06 20:10:00,70.0,41.1,30.12,WNW,294,0.0,0.0,35,0.00,,SCT150,0.16,VWS V14.01,2013-07-07 00:10:00,
2013-07-06 20:15:00,70.0,41.1,30.12,WNW,296,0.0,7.0,35,0.00,,SCT150,0.16,VWS V14.01,2013-07-07 00:15:00,
2013-07-06 20:21:00,70.0,41.1,30.12,WNW,295,0.0,0.0,35,0.00,,SCT150,0.16,VWS V14.01,2013-07-07 00:21:00,
2013-07-06 20:26:00,70.0,41.1,30.15,WNW,296,0.0,0.0,35,0.00,,SCT150,0.16,VWS V14.01,2013-07-07 00:26:00,
2013-07-06 20:31:00,70.0,41.1,30.15,WNW,296,0.0,0.0,35,0.00,,SCT150,0.16,VWS V14.01,2013-07-07 00:31:00,
2013-07-06 20:38:00,70.0,41.1,30.12,WNW,296,0.0,0.0,35,0.00,,SCT150,0.16,VWS V14.01,2013-07-07 00:38:00,
2013-07-06 20:44:00,70.0,41.1,30.12,WNW,295,0.0,0.0,35,0.00,,SCT150,0.16,VWS V14.01,2013-07-07 00:44:00,
2013-07-06 20:50:00,70.0,41.1,30.12,WNW,296,0.0,0.0,35,0.00,,SCT150,0.16,VWS V14.01,2013-07-07 00:50:00,
2013-07-06 20:55:00,70.0,41.1,30.15,WNW,297,0.0,0.0,35,0.00,,SCT150,0.16,VWS V14.01,2013-07-07 00:55:00,
2013-07-06 21:00:00,70.0,41.1,30.15,WNW,297,0.0,0.0,35,0.00,,SCT150,0.16,VWS V14.01,2013-07-07 01:00:00,
2013-07-06 21:06:00,70.0,41.1,30.15,WNW,295,0.0,0.0,35,0.00,,BKN150,0.16,VWS V14.01,2013-07-07 01:06:00,
2013-07-06 21:11:00,70.0,41.1,30.15,WNW,295,0.0,0.0,35,0.00,,BKN150,0.16,VWS V14.01,2013-07-07 01:11:00,
2013-07-06 21:16:00,70.0,41.1,30.15,WNW,295,0.0,0.0,35,0.00,,BKN150,0.16,VWS V14.01,2013-07-07 01:16:00,
2013-07-06 21:21:00,70.0,41.1,30.15,WNW,295,0.0,0.0,35,0.00,,BKN150,0.16,VWS V14.01,2013-07-07 01:21:00,
2013-07-06 21:26:00,70.0,41.1,30.15,WNW,295,0.0,0.0,35,0.00,,BKN150,0.16,VWS V14.01,2013-07-07 01:26:00,
2013-07-06 21:31:00,70.0,41.1,30.15,WNW,296,0.0,0.0,35,0.00,,BKN150,0.16,VWS V14.01,2013-07-07 01:31:00,
2013-07-06 21:36:00,70.0,41.1,30.15,WNW,294,0.0,0.0,35,0.00,,BKN150,0.16,VWS V14.01,2013-07-07 01:36:00,
2013-07-06 21:42:00,70.0,41.1,30.15,WNW,296,0.0,0.0,35,0.00,,BKN150,0.16,VWS V14.01,2013-07-07 01:42:00,
2013-07-06 21:47:00,70.0,41.1,30.15,WNW,295,0.0,0.0,35,0.00,,BKN150,0.16,VWS V14.01,2013-07-07 01:47:00,
2013-07-06 21:53:00,70.0,41.1,30.18,WNW,295,0.0,0.0,35,0.00,,BKN150,0.16,VWS V14.01,2013-07-07 01:53:00,
2013-07-06 21:58:00,70.0,41.1,30.18,WNW,296,0.0,0.0,35,0.00,,BKN150,0.16,VWS V14.01,2013-07-07 01:58:00,
2013-07-06 22:03:00,70.0,41.1,30.18,WNW,295,0.0,0.0,35,0.00,,BKN150,0.16,VWS V14.01,2013-07-07 02:03:00,
2013-07-06 22:09:00,70.0,41.1,30.18,WNW,296,0.0,0.0,35,0.00,,BKN150,0.16,VWS V14.01,2013-07-07 02:09:00,
2013-07-06 22:14:00,70.0,41.1,30.18,WNW,297,0.0,0.0,35,0.00,,BKN150,0.16,VWS V14.01,2013-07-07 02:14:00,
2013-07-06 22:19:00,70.0,41.1,30.18,WNW,297,0.0,0.0,35,0.00,,BKN150,0.16,VWS V14.01,2013-07-07 02:19:00,
2013-07-06 22:24:00,70.0,41.1,30.18,WNW,295,0.0,0.0,35,0.00,,BKN150,0.16,VWS V14.01,2013-07-07 02:24:00,
2013-07-06 22:30:00,70.0,41.1,30.18,WNW,297,0.0,0.0,35,0.00,,BKN150,0.16,VWS V14.01,2013-07-07 02:30:00,
2013-07-06 22:35:00,70.0,41.1,30.18,WNW,296,0.0,0.0,35,0.00,,BKN150,0.16,VWS V14.01,2013-07-07 02:35:00,
2013-07-06 22:41:00,70.0,41.1,30.18,WNW,295,0.0,0.0,35,0.00,,BKN150,0.16,VWS V14.01,2013-07-07 02:41:00,
2013-07-06 22:46:00,70.0,41.1,30.18,WNW,296,0.0,0.0,35,0.00,,BKN150,0.16,VWS V14.01,2013-07-07 02:46:00,
2013-07-06 22:51:00,70.0,41.1,30.18,WNW,297,0.0,0.0,35,0.00,,BKN150,0.16,VWS V14.01,2013-07-07 02:51:00,
2013-07-06 22:56:00,70.0,41.1,30.18,WNW,295,0.0,0.0,35,0.00,,BKN150,0.16,VWS V14.01,2013-07-07 02:56:00,
2013-07-06 23:01:00,70.0,41.1,30.18,WNW,295,0.0,0.0,35,0.00,,SCT150,0.16,VWS V14.01,2013-07-07 03:01:00,
2013-07-06 23:06:00,70.0,41.1,30.18,WNW,295,0.0,0.0,35,0.00,,SCT150,0.16,VWS V14.01,2013-07-07 03:06:00,
2013-07-06 23:13:00,70.0,41.1,30.18,WNW,296,0.0,0.0,35,0.00,,SCT150,0.16,VWS V14.01,2013-07-07 03:13:00,
2013-07-06 23:18:00,70.0,41.1,30.18,WNW,296,0.0,0.0,35,0.00,,SCT150,0.16,VWS V14.01,2013-07-07 03:18:00,
2013-07-06 23:23:00,70.0,41.1,30.18,WNW,296,0.0,0.0,35,0.00,,SCT150,0.16,VWS V14.01,2013-07-07 03:23:00,
2013-07-06 23:29:00,70.0,41.1,30.18,WNW,296,0.0,0.0,35,0.00,,SCT150,0.16,VWS V14.01,2013-07-07 03:29:00,
2013-07-06 23:34:00,70.0,41.1,30.18,WNW,296,0.0,0.0,35,0.00,,SCT150,0.16,VWS V14.01,2013-07-07 03:34:00,
2013-07-06 23:39:00,70.0,41.1,30.18,WNW,296,0.0,0.0,35,0.00,,SCT150,0.16,VWS V14.01,2013-07-07 03:39:00,
2013-07-06 23:45:00,70.0,41.1,30.18,WNW,296,0.0,0.0,35,0.00,,SCT150,0.16,VWS V14.01,2013-07-07 03:45:00,
2013-07-06 23:50:00,70.0,41.1,30.18,WNW,296,0.0,0.0,35,0.00,,SCT150,0.16,VWS V14.01,2013-07-07 03:50:00,
2013-07-06 23:56:00,70.0,41.1,30.18,WNW,296,0.0,0.0,35,0.00,,SCT150,0.16,VWS V14.01,2013-07-07 03:56:00,